GW3092 Weather Reports


time (UTC)temp
F
wind
direction
speed
knots
gust
knots
rain 1hr
in
rain 24hr
in
rain mn
in
humidity
%
barometer
mb
20260507161545 60 249 2.6 7.8 0.00 0.06 0.00 79 1014.6
20260507160044 60 224 5.2 9.6 0.00 0.06 0.00 79 1015.0
20260507154544 61 189 6.1 13.9 0.00 0.06 0.00 78 1014.6
20260507153042 63 241 6.1 14.8 0.00 0.06 0.00 72 1014.5
20260507151543 63 254 7.0 13.9 0.00 0.06 0.00 68 1014.2
20260507150038 64 209 4.3 13.9 0.00 0.06 0.00 60 1013.8
20260507144538 64 219 5.2 14.8 0.00 0.06 0.00 62 1013.7
20260507143044 63 188 9.6 14.8 0.00 0.06 0.00 69 1013.7
20260507141543 64 203 7.8 13.0 0.00 0.06 0.00 72 1013.7
20260507140056 64 202 8.7 13.0 0.00 0.06 0.00 74 1013.9
20260507134541 65 214 7.0 10.4 0.00 0.06 0.00 77 1014.0
20260507133040 65 239 7.0 11.3 0.00 0.06 0.00 77 1013.9
20260507131547 64 235 7.0 12.2 0.00 0.06 0.00 78 1013.9
20260507130043 65 245 8.7 13.0 0.00 0.06 0.00 78 1014.1
20260507124544 65 243 7.0 13.0 0.00 0.07 0.00 78 1014.2
20260507123043 63 246 8.7 14.8 0.00 0.07 0.00 77 1014.0
20260507121540 64 243 8.7 13.0 0.00 0.07 0.00 77 1014.1
20260507120039 64 231 7.8 13.9 0.00 0.07 0.00 76 1014.1
20260507114538 64 246 8.7 13.9 0.00 0.07 0.00 76 1014.2
20260507113044 64 209 7.0 13.9 0.00 0.07 0.00 76 1014.3
20260507111547 63 219 6.1 13.9 0.00 0.07 0.00 77 1014.3
20260507110049 64 257 7.8 13.9 0.00 0.07 0.00 76 1014.5
20260507104541 62 205 7.0 14.8 0.00 0.10 0.00 77 1014.5
20260507103039 63 189 7.0 13.0 0.00 0.10 0.00 77 1014.7
20260507101600 62 206 7.8 16.5 0.00 0.10 0.00 78 1014.7
20260507100045 63 226 10.4 17.4 0.00 0.10 0.00 78 1014.7
20260507094554 63 216 7.0 11.3 0.00 0.22 0.00 79 1014.5
20260507093042 63 233 7.8 13.9 0.00 0.22 0.00 81 1014.4
20260507091553 62 247 8.7 14.8 0.00 0.22 0.00 81 1014.4
20260507090051 62 280 7.0 15.6 0.00 0.22 0.00 81 1014.3
20260507084538 61 247 8.7 13.0 0.00 0.38 0.00 82 1014.3
20260507083045 62 218 3.5 13.0 0.00 0.38 0.00 83 1014.3
20260507081553 61 168 3.5 13.9 0.00 0.38 0.00 86 1014.1
20260507080042 60 193 4.3 13.0 0.00 0.38 0.00 86 1014.0
20260507074541 60 181 7.8 13.0 0.00 0.51 0.00 86 1013.8
20260507073054 60 175 5.2 13.0 0.00 0.51 0.00 86 1013.8
20260507071538 60 0 7.8 17.4 0.00 0.51 0.00 88 1013.7
20260507070126 60 173 5.2 9.6 0.00 0.51 0.00 88 1013.5
20260507064550 60 210 3.5 10.4 0.00 0.62 0.00 89 1013.4
20260507063044 59 190 4.3 10.4 0.00 0.62 0.00 91 1013.2
20260507061543 58 179 2.6 10.4 0.00 0.62 0.00 91 1013.3
20260507060043 58 182 3.5 7.0 0.00 0.62 0.00 92 1013.2
20260507054546 58 204 2.6 7.8 0.00 0.62 0.00 92 1013.2
20260507053042 57 172 4.3 7.8 0.00 0.62 0.00 93 1012.9
20260507051539 57 145 0.9 7.8 0.00 0.62 0.00 93 1012.9
20260507050044 57 158 3.5 8.7 0.00 0.62 0.00 93 1012.7
20260507044545 57 146 4.3 7.0 0.00 0.62 0.00 93 1012.5
20260507043041 57 167 4.3 8.7 0.00 0.62 0.00 93 1012.3
20260507041538 57 166 4.3 7.8 0.00 0.62 0.00 93 1012.3
20260507040049 56 175 4.3 6.1 0.00 0.62 0.00 93 1012.1
20260507034547 56 137 3.5 7.8 0.00 0.62 0.00 93 1012.0
20260507033044 57 161 4.3 10.4 0.00 0.62 0.00 93 1011.9
20260507031542 57 183 3.5 7.8 0.00 0.62 0.00 93 1012.1
20260507030047 57 209 2.6 7.8 0.00 0.62 0.00 93 1012.1
20260507024545 57 181 2.6 8.7 0.00 0.62 0.00 93 1012.0
20260507023037 57 183 0.9 7.8 0.00 0.62 0.00 93 1012.0
20260507021619 57 204 1.7 8.7 0.00 0.62 0.00 93 1012.1
20260507020040 57 195 1.7 10.4 0.00 0.62 0.00 92 1012.0
20260507014552 57 168 2.6 10.4 0.00 0.62 0.00 92 1012.1
20260507013047 57 330 2.6 12.2 0.00 0.62 0.00 92 1012.0
20260507011545 57 247 3.5 11.3 0.00 0.62 0.00 92 1012.0
20260507010050 57 154 2.6 11.3 0.00 0.62 0.00 92 1012.1
20260507004543 57 268 2.6 13.9 0.00 0.62 0.00 92 1011.9
20260507003039 56 165 2.6 9.6 0.00 0.62 0.00 92 1012.1
20260507001550 57 150 2.6 9.6 0.00 0.62 0.00 91 1011.9
20260507000045 56 146 4.3 11.3 0.00 0.62 0.00 92 1012.1
20260506234544 56 168 6.1 13.0 0.00 0.62 0.00 91 1012.3
20260506233044 56 142 6.1 12.2 0.00 0.62 0.00 90 1012.4
20260506231542 56 166 6.1 12.2 0.00 0.62 0.00 91 1012.5
20260506230040 56 207 7.8 12.2 0.00 0.62 0.00 91 1012.5
20260506224538 56 187 5.2 8.7 0.00 0.62 0.00 91 1012.6
20260506223046 56 145 3.5 7.8 0.00 0.62 0.00 91 1012.8
20260506221545 56 149 2.6 7.0 0.00 0.62 0.00 91 1012.6
20260506220044 56 139 3.5 7.8 0.00 0.62 0.00 91 1012.4
20260506214545 55 168 5.2 10.4 0.00 0.62 0.62 90 1012.4
20260506213040 55 208 6.1 10.4 0.00 0.62 0.62 90 1012.1
20260506211538 55 162 5.2 8.7 0.00 0.62 0.62 90 1012.3
20260506210050 55 222 5.2 9.6 0.00 0.62 0.62 91 1012.2
20260506204544 56 153 4.3 11.3 0.00 0.62 0.62 91 1012.3
20260506203050 56 170 4.3 9.6 0.00 0.62 0.62 91 1012.2
20260506201600 57 203 5.2 15.6 0.00 0.62 0.62 91 1012.1
20260506200048 57 164 5.2 15.6 0.00 0.62 0.62 91 1012.1
20260506194548 56 185 5.2 12.2 0.00 0.62 0.62 92 1012.0
20260506193050 57 190 3.5 17.4 0.00 0.62 0.62 92 1011.8
20260506191544 57 191 6.1 14.8 0.00 0.62 0.62 92 1011.5
20260506190043 58 157 6.1 18.2 0.00 0.62 0.62 92 1011.2
20260506184549 58 137 6.1 13.0 0.00 0.62 0.62 92 1011.0
20260506183040 58 189 3.5 14.8 0.01 0.62 0.62 92 1011.1
20260506181540 58 183 3.5 13.0 0.02 0.62 0.62 92 1011.2
20260506180045 58 177 4.3 12.2 0.03 0.62 0.62 92 1011.1
20260506174542 58 123 4.3 10.4 0.05 0.62 0.62 92 1011.0
20260506173059 59 210 4.3 12.2 0.04 0.61 0.61 91 1010.8
20260506171551 59 148 5.2 19.1 0.03 0.60 0.60 91 1011.0
20260506170040 59 237 12.2 20.0 0.01 0.58 0.58 89 1010.6
20260506164544 60 155 7.8 17.4 0.00 0.56 0.56 88 1009.7
20260506163059 61 176 4.3 15.6 0.00 0.56 0.56 87 1010.4